Date String (YYYY-MM-DD hh:mm:ss) UTC,Instrument flags,Ambient pressure (hPa),Sample flow (lpm),Bypass flow (lpm),Sample temperature (°C),Ambient temperature (°C),ASC tube jacket temperature (°C),LED temperature (°C),Box temperature (°C),Sample RH (%),Span deviation,Mass concentration (μg/m³),Mass concentration (μg/m³),Mass concentration (μg/m³)
DateTimeUTC,F1_M11,P_M11,Q1_M11,Q2_M11,T1_M11,T2_M11,T3_M11,T4_M11,T5_M11,U1_M11,ZSPAN_M11,X0_M11,X2_M11,X1_M11
2021-12-29 14:00:00,,0812.6,5.01,0.00,22.6,23.5,00.0,31.6,24.5,06.2,0000.0,0017.57,0003.59,0001.28
2021-12-29 14:01:00,,0812.5,4.99,0.00,22.7,23.3,00.0,31.6,24.5,06.2,0000.0,0016.71,0003.61,0001.28
2021-12-29 14:02:00,,0812.5,5.01,0.00,22.7,22.9,00.0,31.6,24.4,06.2,0000.0,0016.77,0003.61,0001.30
2021-12-29 14:03:00,,0812.4,5.00,0.00,22.6,22.6,00.0,31.6,24.3,06.2,0000.0,0015.97,0003.65,0001.32
2021-12-29 14:04:00,,0812.5,5.00,0.00,22.5,22.3,00.0,31.6,24.1,06.3,0000.0,0015.38,0003.60,0001.32
2021-12-29 14:05:00,,0812.5,4.99,0.00,22.5,22.1,00.0,31.6,24.0,06.3,0000.0,0014.33,0003.53,0001.33
2021-12-29 14:06:00,,0812.5,5.00,0.00,22.4,21.9,00.0,31.5,23.9,06.3,0000.0,0013.69,0003.51,0001.36
2021-12-29 14:07:00,,0812.5,5.00,0.00,22.4,21.7,00.0,31.5,23.9,06.4,0000.0,0014.12,0003.54,0001.35
2021-12-29 14:08:00,,0812.5,5.01,0.00,22.3,21.5,00.0,31.5,23.8,06.4,0000.0,0014.08,0003.52,0001.36
2021-12-29 14:09:00,,0812.5,4.99,0.00,22.2,21.4,00.0,31.5,23.7,06.4,0000.0,0013.94,0003.46,0001.36
2021-12-29 14:10:00,,0812.5,5.00,0.00,22.2,21.3,00.0,31.4,23.6,06.4,0000.0,0013.14,0003.42,0001.34
2021-12-29 14:11:00,,0812.5,5.00,0.00,22.2,21.8,00.0,31.4,23.8,06.4,0000.0,0012.36,0003.41,0001.34
2021-12-29 14:12:00,,0812.5,5.00,0.00,22.3,22.6,00.0,31.5,24.1,06.3,0000.0,0011.79,0003.35,0001.33
2021-12-29 14:13:00,,0812.5,4.99,0.00,22.5,23.3,00.0,31.5,24.4,06.3,0000.0,0011.47,0003.31,0001.32
2021-12-29 14:14:00,,0812.5,4.99,0.00,22.6,23.3,00.0,31.5,24.5,06.2,0000.0,0011.12,0003.25,0001.30
2021-12-29 14:15:00,,0812.5,5.01,0.00,22.6,23.0,00.0,31.5,24.4,06.2,0000.0,0010.83,0003.21,0001.29
2021-12-29 14:16:00,,0812.5,5.00,0.00,22.6,22.7,00.0,31.5,24.3,06.2,0000.0,0010.14,0003.16,0001.28
2021-12-29 14:17:00,,0812.5,4.99,0.00,22.5,22.4,00.0,31.5,24.1,06.3,0000.0,0009.80,0003.13,0001.25
2021-12-29 14:18:00,,0812.5,5.02,0.00,22.5,22.2,00.0,31.5,24.0,06.3,0000.0,0009.22,0003.09,0001.26
2021-12-29 14:19:00,,0812.5,5.00,0.00,22.4,22.0,00.0,31.5,23.9,06.3,0000.0,0008.65,0002.96,0001.27
2021-12-29 14:20:00,,0812.5,5.00,0.00,22.3,21.8,00.0,31.5,23.9,06.4,0000.0,0008.24,0002.93,0001.27
2021-12-29 14:21:00,,0812.5,5.02,0.00,22.3,21.7,00.0,31.5,23.8,06.4,0000.0,0008.55,0002.89,0001.28
2021-12-29 14:22:00,,0812.5,5.01,0.00,22.3,21.6,00.0,31.4,23.8,06.4,0000.0,0008.38,0002.82,0001.27
2021-12-29 14:23:00,,0812.6,4.99,0.00,22.2,21.5,00.0,31.4,23.8,06.4,0000.0,0008.43,0002.86,0001.28
2021-12-29 14:24:00,,0812.7,5.01,0.00,22.2,21.4,00.0,31.4,23.7,06.4,0000.0,0008.36,0002.90,0001.30
2021-12-29 14:25:00,,0812.7,5.00,0.00,22.2,22.0,00.0,31.4,23.9,06.4,0000.0,0008.42,0002.90,0001.29
2021-12-29 14:26:00,,0812.7,4.99,0.00,22.4,22.8,00.0,31.4,24.2,06.4,0000.0,0008.43,0002.95,0001.30
2021-12-29 14:27:00,,0812.6,5.00,0.00,22.5,23.4,00.0,31.5,24.4,06.3,0000.0,0008.29,0003.00,0001.31
2021-12-29 14:28:00,,0812.6,4.99,0.00,22.6,23.4,00.0,31.5,24.5,06.3,0000.0,0008.64,0003.03,0001.32
2021-12-29 14:29:00,,0812.6,5.02,0.00,22.7,23.1,00.0,31.5,24.5,06.3,0000.0,0008.59,0002.96,0001.31
2021-12-29 14:30:00,,0812.6,4.99,0.00,22.6,22.8,00.0,31.5,24.3,06.3,0000.0,0008.96,0002.99,0001.30
2021-12-29 14:31:00,,0812.6,5.01,0.00,22.6,22.4,00.0,31.5,24.1,06.3,0000.0,0008.83,0002.93,0001.30
2021-12-29 14:32:00,,0812.6,4.99,0.00,22.5,22.1,00.0,31.5,24.0,06.3,0000.0,0009.18,0002.96,0001.31
2021-12-29 14:33:00,,0812.7,5.01,0.00,22.4,21.8,00.0,31.5,23.8,06.4,0000.0,0009.86,0003.00,0001.33
2021-12-29 14:34:00,,0812.7,5.01,0.00,22.2,21.6,00.0,31.4,23.7,06.4,0000.0,0010.48,0002.97,0001.33
2021-12-29 14:35:00,,0812.7,5.00,0.00,22.1,21.3,00.0,31.4,23.5,06.4,0000.0,0010.38,0002.90,0001.32
2021-12-29 14:36:00,,0812.7,5.00,0.00,22.0,21.1,00.0,31.4,23.4,06.4,0000.0,0011.08,0002.91,0001.32
2021-12-29 14:37:00,,0812.7,5.00,0.00,22.0,21.1,00.0,31.3,23.4,06.4,0000.0,0011.58,0002.93,0001.30
2021-12-29 14:38:00,,0812.7,4.99,0.00,22.0,21.8,00.0,31.3,23.6,06.4,0000.0,0011.77,0003.03,0001.29
2021-12-29 14:39:00,,0812.7,5.01,0.00,22.2,22.7,00.0,31.4,24.0,06.3,0000.0,0011.69,0002.98,0001.28
2021-12-29 14:40:00,,0812.7,4.99,0.00,22.4,23.4,00.0,31.4,24.3,06.3,0000.0,0011.48,0002.91,0001.28
2021-12-29 14:41:00,,0812.7,5.00,0.00,22.5,23.2,00.0,31.4,24.4,06.3,0000.0,0011.40,0002.93,0001.28
2021-12-29 14:42:00,,0812.7,5.00,0.00,22.4,22.9,00.0,31.4,24.2,06.3,0000.0,0011.01,0002.99,0001.28
2021-12-29 14:43:00,,0812.6,5.00,0.00,22.4,22.6,00.0,31.4,24.1,06.3,0000.0,0010.96,0003.02,0001.27
2021-12-29 14:44:00,,0812.7,5.01,0.00,22.4,22.3,00.0,31.4,24.0,06.3,0000.0,0010.26,0003.04,0001.27
2021-12-29 14:45:00,,0812.7,4.98,0.00,22.3,22.1,00.0,31.4,23.9,06.3,0000.0,0009.62,0003.05,0001.27
2021-12-29 14:46:00,,0812.8,5.01,0.00,22.3,21.9,00.0,31.4,23.8,06.3,0000.0,0009.57,0003.09,0001.28
2021-12-29 14:47:00,,0812.8,5.00,0.00,22.2,21.7,00.0,31.3,23.8,06.3,0000.0,0009.19,0003.12,0001.28
2021-12-29 14:48:00,,0812.9,5.00,0.00,22.2,21.5,00.0,31.3,23.7,06.4,0000.0,0008.89,0003.09,0001.29
2021-12-29 14:49:00,,0812.9,4.99,0.00,22.1,21.4,00.0,31.3,23.6,06.4,0000.0,0009.08,0002.99,0001.30
2021-12-29 14:50:00,,0812.9,5.01,0.00,22.1,21.3,00.0,31.3,23.6,06.5,0000.0,0009.30,0003.02,0001.32
2021-12-29 14:51:00,,0812.8,4.99,0.00,22.0,21.2,00.0,31.2,23.5,06.5,0000.0,0010.27,0003.13,0001.33
2021-12-29 14:52:00,,0812.8,5.01,0.00,22.0,21.2,00.0,31.2,23.5,06.5,0000.0,0010.50,0003.18,0001.33
2021-12-29 14:53:00,,0812.8,5.00,0.00,22.1,22.1,00.0,31.2,23.8,06.4,0000.0,0011.35,0003.18,0001.33
2021-12-29 14:54:00,,0812.8,5.00,0.00,22.2,23.0,00.0,31.3,24.1,06.4,0000.0,0011.43,0003.15,0001.33
2021-12-29 14:55:00,,0812.8,5.00,0.00,22.4,23.2,00.0,31.3,24.3,06.4,0000.0,0011.57,0003.16,0001.33
2021-12-29 14:56:00,,0812.8,4.99,0.00,22.4,22.7,00.0,31.3,24.2,06.4,0000.0,0011.73,0003.15,0001.32
2021-12-29 14:57:00,,0812.9,4.99,0.00,22.3,22.4,00.0,31.3,24.1,06.4,0000.0,0011.92,0003.14,0001.30
2021-12-29 14:58:00,,0812.9,5.01,0.00,22.3,22.2,00.0,31.3,24.0,06.4,0000.0,0011.95,0003.12,0001.30
2021-12-29 14:59:00,,0812.9,5.00,0.00,22.3,22.0,00.0,31.3,23.9,06.3,0000.0,0011.62,0003.12,0001.29
